[[{"header":{"parameterUnit":"m.s-1","parameterCategory":1,"la1":30.2991,"la2":30.254,"lo1":-89.0895,"lo2":-89.0444,"dy":0.0017,"dx":0.0017,"nx":28,"ny":28,"refTime":"2025-01-23T09:00:00:Z","depth":0,"parameterNumber":2,"parameterNumberName":"U-component_of_WINDS"},"data":[0,0,0,0,0,0,0,0,0,0,0,0,0,0,0,0,0,0,0,0,0,0,0,0,0,0,0,0,0,0,0,0,0,0,0,0,0,0,0,0,0,0,0,0,0,0,0,0,0,0,0,0,0,0,0,0,0,0,0.7957,0.7956,0,0.7921,0.7921,0.7921,0.7929,0.793,0.7931,0.7931,0.7892,0.789,0.7888,0,0,0,0,0,0,0,0,0,0,0,0,0,0.8029,0.8027,0.7957,0.7956,0.7956,0.7921,0.7921,0.792,0.7929,0.793,0.7931,0.7932,0.7892,0.789,0.7888,0,0,0,0,0,0,0,0,0,0,0,0,0,0.7996,0.8027,0.7957,0.7956,0.7956,0.7922,0.7921,0.792,0.7929,0.793,0.7931,0.7932,0.7893,0.7891,0.7888,0.7851,0,0,0.788,0.7879,0,0,0,0,0,0,0,0,0.7998,0.7993,0.7957,0.7956,0.7956,0.7931,0.7932,0.7897,0.7929,0.7939,0.7932,0.7933,0.7904,0.79,0.7891,0.7849,0.7848,0.788,0.7878,0.7877,0.7877,0,0,0,0,0,0,0,0.8,0.7995,0.7943,0.7956,0.7955,0.7957,0.7953,0.7925,0.7916,0.7938,0.7939,0.7935,0.7904,0.7894,0.789,0.7847,0.788,0.7878,0.7876,0.7875,0.7773,0.7772,0,0,0,0,0,0,0.8003,0.7997,0.7944,0.7941,0.798,0.7955,0.7951,0.7938,0.7916,0.7914,0.7934,0.7935,0.7898,0.7893,0.7889,0.7844,0.7877,0.7875,0.7873,0.7775,0.7773,0.7772,0,0,0,0,0,0,0.8005,0.7998,0.7945,0.7969,0.7963,0.7952,0.7938,0.7936,0.7927,0.7913,0.7911,0.7926,0.7898,0.7893,0.7861,0.7843,0.7874,0.7871,0.7776,0.7774,0.7773,0.7755,0,0,0,0,0,0,0.8007,0.7999,0.7985,0.7969,0.7961,0.7918,0.7937,0.7935,0.7923,0.7924,0.7905,0.7902,0.7899,0.7865,0.7858,0.784,0.7869,0.7777,0.7775,0.7773,0.7757,0.7752,0.7749,0,0,0,0,0,0.8009,0.7981,0.7984,0.7978,0.7944,0.7917,0.7912,0.791,0.7921,0.7907,0.7898,0.7903,0.7847,0.7861,0.7854,0.7835,0.7778,0.7776,0.7773,0.7758,0.7753,0.7749,0,0,0,0,0,0,0.7993,0.7978,0.7982,0.7948,0.7934,0.7919,0.79,0.7904,0.7886,0.7888,0.7884,0.788,0.7847,0.7838,0.7855,0.7798,0.7814,0.781,0.7805,0.78,0.7796,0.7798,0.7867,0,0,0,0,0,0.7986,0.7966,0.7954,0.7925,0.7918,0.791,0.7898,0.7898,0.7883,0.7876,0.7865,0.7849,0.7828,0.7814,0.7794,0.7756,0.7752,0.774,0.7736,0.7733,0.7728,0.7708,0.7702,0.7763,0.7763,0.7763,0,0,0.797,0.796,0.7947,0.7921,0.791,0.7889,0.7905,0.7882,0.7866,0.7872,0.7842,0.7833,0.7815,0.7781,0.7765,0.7772,0.7711,0.7729,0.7727,0.7724,0.7705,0.7699,0.7694,0.7761,0.7762,0.7762,0,0,0.793,0.7921,0.7895,0.7885,0.7868,0.7864,0.7858,0.7843,0.7838,0.7808,0.7812,0.7793,0.7756,0.7744,0.7732,0.769,0.7693,0.7683,0.7662,0.7642,0.7637,0.7633,0.7617,0.7611,0.7679,0.7679,0.7679,0,0.7912,0.7881,0.7881,0.7858,0.7846,0.7854,0.7827,0.7816,0.7794,0.7785,0.7795,0.775,0.7738,0.77,0.769,0.7681,0.7673,0.7684,0.7638,0.7634,0.763,0.7614,0.7608,0.7678,0.7678,0.7679,0.7679,0,0.7859,0.7838,0.7819,0.7799,0.7785,0.776,0.7756,0.7743,0.7744,0.7738,0.7708,0.7695,0.7672,0.7663,0.7663,0.7626,0.7631,0.7639,0.7654,0.7623,0.7608,0.7602,0.7677,0.7677,0.7677,0.7678,0,0,0.7805,0.7788,0.778,0.7772,0.7755,0.7738,0.7714,0.7693,0.7681,0.7666,0.7645,0.7615,0.7623,0.761,0.761,0.7592,0.7559,0.7603,0.7602,0.7594,0.7516,0.7509,0.7502,0.7562,0.7561,0.756,0.7517,0,0.7763,0.7721,0.7722,0.7683,0.7663,0.767,0.7649,0.7637,0.7632,0.7613,0.7607,0.7586,0.7598,0.7591,0.7574,0.7566,0.7543,0.757,0.7541,0.754,0.7544,0.7494,0.7486,0.7446,0.7512,0.7511,0.751,0,0.7708,0.7692,0.7651,0.7639,0.7631,0.7612,0.7593,0.7576,0.7562,0.756,0.7546,0.7549,0.7524,0.7542,0.7506,0.7525,0.7514,0.7508,0.7507,0.7502,0.7522,0.7487,0.7433,0.7427,0.7501,0.7502,0.7502,0,0.7671,0.764,0.7612,0.7605,0.7589,0.7576,0.7569,0.7556,0.7544,0.7528,0.752,0.7501,0.749,0.7474,0.7471,0.7485,0.7436,0.7454,0.7432,0.7432,0.742,0.742,0.7361,0.7415,0.7415,0.7415,0.7416,0,0.7623,0.7597,0.7596,0.7578,0.755,0.7551,0.7523,0.7517,0.7506,0.7487,0.7492,0.7474,0.7472,0.7453,0.7451,0.7422,0.7417,0.7414,0.7413,0.7412,0.7413,0.7403,0.7405,0.7414,0.7414,0.7415,0.7415,0,0.7576,0.7575,0.7544,0.7533,0.753,0.751,0.75,0.7483,0.7479,0.7455,0.745,0.7443,0.7422,0.7418,0.7392,0.7391,0.7356,0.7359,0.736,0.736,0.7339,0.734,0.7271,0.7261,0.7322,0.7322,0.7321,0,0.7544,0.7525,0.7513,0.7501,0.7494,0.7475,0.7463,0.7464,0.7451,0.7435,0.742,0.7399,0.7382,0.7347,0.734,0.732,0.7322,0.7299,0.7319,0.7319,0.732,0.7321,0.7318,0.7294,0.7294,0.7293,0.7293,0,0.7488,0.7489,0.7472,0.7455,0.7441,0.7427,0.7415,0.7405,0.7404,0.7389,0.7368,0.7355,0.733,0.7309,0.729,0.7282,0.7286,0.7287,0.7281,0.7279,0.728,0.7278,0.7348,0.7288,0.7288,0.7289,0.7289,0.7289,0.7447,0.743,0.7419,0.7401,0.7392,0.738,0.7364,0.7359,0.7342,0.7322,0.7324,0.73,0.7287,0.7263,0.7254,0.7235,0.7242,0.7233,0.723,0.7228,0.7225,0.7285,0.7231,0.7232,0.7232,0.7232,0.7232,0,0.739,0.7384,0.7367,0.7349,0.7335,0.7343,0.733,0.7316,0.7296,0.7285,0.7269,0.7244,0.7225,0.7217,0.7198,0.7184,0.7186,0.7179,0.7179,0.7177,0.722,0.7227,0.7178,0.7178,0.7178,0.7178,0.7178,0.7178,0.7358,0.733,0.733,0.7298,0.7292,0.727,0.7261,0.725,0.7241,0.7214,0.7199,0.7194,0.7184,0.7165,0.7147,0.7145,0.7137,0.7129,0.7128,0.7168,0.7174,0.7179,0.7185,0.7127,0.7127,0.7085,0.7085,0.7085]},{"header":{"parameterUnit":"m.s-1","parameterCategory":1,"la1":30.2991,"la2":30.254,"lo1":-89.0895,"lo2":-89.0444,"dy":0.0017,"dx":0.0017,"nx":28,"ny":28,"refTime":"2025-01-23T09:00:00:Z","depth":0,"parameterNumber":3,"parameterNumberName":"V-component_of_WINDS"},"data":[0,0,0,0,0,0,0,0,0,0,0,0,0,0,0,0,0,0,0,0,0,0,0,0,0,0,0,0,0,0,0,0,0,0,0,0,0,0,0,0,0,0,0,0,0,0,0,0,0,0,0,0,0,0,0,0,0,0,-4.1731,-4.1732,0,-4.1861,-4.1862,-4.1864,-4.1788,-4.1785,-4.1781,-4.1778,-4.1906,-4.1912,-4.1919,0,0,0,0,0,0,0,0,0,0,0,0,0,-4.1413,-4.1419,-4.1731,-4.1733,-4.1734,-4.1861,-4.1862,-4.1864,-4.1789,-4.1785,-4.178,-4.1776,-4.1903,-4.1911,-4.192,0,0,0,0,0,0,0,0,0,0,0,0,0,-4.1548,-4.1421,-4.1731,-4.1712,-4.1712,-4.186,-4.1863,-4.1865,-4.179,-4.1785,-4.1779,-4.1774,-4.1901,-4.1911,-4.1921,-4.2093,0,0,-4.1952,-4.1956,0,0,0,0,0,0,0,0,-4.154,-4.1559,-4.1713,-4.1714,-4.1714,-4.1803,-4.1797,-4.1941,-4.1791,-4.176,-4.1778,-4.1771,-4.1876,-4.1887,-4.1924,-4.2099,-4.2105,-4.1953,-4.1959,-4.1963,-4.1966,0,0,0,0,0,0,0,-4.1531,-4.1553,-4.1782,-4.1715,-4.1716,-4.1696,-4.1709,-4.1824,-4.1847,-4.1762,-4.1757,-4.1774,-4.1874,-4.1914,-4.1926,-4.2107,-4.1952,-4.1962,-4.1968,-4.1972,-4.243,-4.2436,0,0,0,0,0,0,-4.1523,-4.1546,-4.1778,-4.1786,-4.1612,-4.1706,-4.172,-4.178,-4.1845,-4.185,-4.1779,-4.177,-4.1899,-4.1914,-4.193,-4.2137,-4.1963,-4.1973,-4.1979,-4.2424,-4.2431,-4.2438,0,0,0,0,0,0,-4.1517,-4.1545,-4.1773,-4.1665,-4.1692,-4.1717,-4.1784,-4.1785,-4.1825,-4.1858,-4.1861,-4.1815,-4.1896,-4.1916,-4.2054,-4.2141,-4.1977,-4.1987,-4.2417,-4.2426,-4.2435,-4.2553,0,0,0,0,0,0,-4.1508,-4.1543,-4.161,-4.1667,-4.1698,-4.1896,-4.179,-4.1792,-4.1843,-4.1833,-4.1893,-4.1897,-4.1893,-4.2039,-4.2064,-4.2152,-4.1995,-4.2409,-4.2421,-4.2432,-4.2541,-4.2564,-4.2585,0,0,0,0,0,-4.1497,-4.1637,-4.1614,-4.1642,-4.1783,-4.1901,-4.1919,-4.1913,-4.185,-4.1917,-4.1938,-4.1895,-4.2127,-4.2054,-4.2081,-4.2173,-4.2404,-4.2418,-4.2431,-4.2531,-4.256,-4.2584,0,0,0,0,0,0,-4.1588,-4.1644,-4.1619,-4.1782,-4.1838,-4.1888,-4.1973,-4.1943,-4.2016,-4.2004,-4.199,-4.2005,-4.2148,-4.2174,-4.2092,-4.2344,-4.2255,-4.2275,-4.2322,-4.235,-4.2371,-4.2362,-4.2003,0,0,0,0,0,-4.1627,-4.172,-4.1763,-4.1903,-4.1932,-4.1948,-4.1999,-4.1989,-4.2046,-4.2068,-4.2099,-4.2154,-4.2239,-4.2295,-4.2375,-4.2544,-4.2555,-4.2621,-4.2642,-4.266,-4.2678,-4.2768,-4.2798,-4.2483,-4.2483,-4.2482,0,0,-4.1709,-4.1751,-4.181,-4.1922,-4.1964,-4.206,-4.1968,-4.2073,-4.2143,-4.2083,-4.2217,-4.2241,-4.2301,-4.2455,-4.2525,-4.2481,-4.2767,-4.2677,-4.2691,-4.2699,-4.2786,-4.2815,-4.2842,-4.2492,-4.249,-4.2489,0,0,-4.1907,-4.1948,-4.2069,-4.2114,-4.2179,-4.2188,-4.2218,-4.2273,-4.2288,-4.2421,-4.2379,-4.2461,-4.2607,-4.2652,-4.2694,-4.2909,-4.2872,-4.2935,-4.305,-4.3138,-4.3163,-4.3185,-4.3262,-4.329,-4.2952,-4.2953,-4.2953,0,-4.2,-4.2144,-4.2135,-4.2244,-4.2294,-4.2246,-4.2368,-4.241,-4.2498,-4.2533,-4.2483,-4.2667,-4.2704,-4.2868,-4.292,-4.2956,-4.2988,-4.2929,-4.3161,-4.3183,-4.3203,-4.3276,-4.3305,-4.296,-4.2959,-4.2958,-4.2958,0,-4.2255,-4.2355,-4.2444,-4.2533,-4.2592,-4.2707,-4.2714,-4.2776,-4.276,-4.2775,-4.291,-4.2953,-4.3041,-4.3079,-4.3064,-4.3241,-4.3212,-4.3162,-4.3073,-4.324,-4.3309,-4.3337,-4.297,-4.2968,-4.2966,-4.2964,0,0,-4.2515,-4.2597,-4.263,-4.2669,-4.2738,-4.2814,-4.2925,-4.3013,-4.3067,-4.3128,-4.3221,-4.3346,-4.33,-4.3348,-4.3337,-4.3415,-4.3583,-4.3355,-4.3356,-4.3397,-4.3781,-4.3819,-4.3852,-4.3559,-4.3564,-4.3568,-4.3776,0,-4.2718,-4.2916,-4.2911,-4.3094,-4.3186,-4.3141,-4.3238,-4.329,-4.3306,-4.3385,-4.3401,-4.3491,-4.3423,-4.3452,-4.3527,-4.3547,-4.366,-4.3532,-4.3644,-4.3648,-4.3632,-4.3888,-4.3929,-4.4123,-4.3803,-4.3807,-4.381,0,-4.2982,-4.3054,-4.3247,-4.3302,-4.3341,-4.3428,-4.3509,-4.3585,-4.3642,-4.3648,-4.3702,-4.3679,-4.379,-4.3698,-4.3851,-4.3763,-4.3809,-4.3825,-4.3833,-4.3844,-4.374,-4.3906,-4.4184,-4.4214,-4.3852,-4.3849,-4.3846,0,-4.3153,-4.3299,-4.3433,-4.3468,-4.3535,-4.3598,-4.3628,-4.368,-4.3733,-4.3802,-4.3836,-4.3917,-4.3961,-4.4023,-4.4022,-4.3955,-4.4177,-4.4084,-4.4185,-4.4185,-4.4235,-4.4232,-4.4525,-4.4262,-4.4262,-4.4261,-4.4261,0,-4.3381,-4.3501,-4.3511,-4.3594,-4.3727,-4.3719,-4.385,-4.3873,-4.392,-4.4005,-4.397,-4.4051,-4.4044,-4.4125,-4.4124,-4.4251,-4.4271,-4.4278,-4.4277,-4.4283,-4.4282,-4.4313,-4.43,-4.4269,-4.4267,-4.4266,-4.4264,0,-4.3596,-4.3608,-4.3751,-4.3804,-4.3819,-4.3915,-4.3959,-4.4037,-4.4049,-4.4158,-4.4182,-4.4202,-4.4295,-4.43,-4.4407,-4.4406,-4.4561,-4.4544,-4.4543,-4.454,-4.4641,-4.4632,-4.4965,-4.5009,-4.4717,-4.472,-4.4722,0,-4.3742,-4.3833,-4.3896,-4.3952,-4.3986,-4.4076,-4.4131,-4.4126,-4.4183,-4.4255,-4.4324,-4.4415,-4.4487,-4.4638,-4.466,-4.4742,-4.4727,-4.4838,-4.4739,-4.4741,-4.4729,-4.4725,-4.4734,-4.4858,-4.4861,-4.4864,-4.4866,0,-4.3999,-4.4,-4.4081,-4.4165,-4.4231,-4.4296,-4.4356,-4.4403,-4.4405,-4.4471,-4.4568,-4.4624,-4.4734,-4.4824,-4.4903,-4.4932,-4.49,-4.4897,-4.4924,-4.4931,-4.4927,-4.4932,-4.4597,-4.4889,-4.4887,-4.4885,-4.4884,-4.4883,-4.4184,-4.4264,-4.4321,-4.4412,-4.4457,-4.4514,-4.459,-4.4613,-4.4694,-4.4784,-4.4775,-4.4882,-4.4935,-4.5039,-4.5074,-4.5156,-4.5118,-4.5158,-4.5168,-4.5179,-4.519,-4.4914,-4.517,-4.517,-4.5169,-4.5168,-4.5168,0,-4.4441,-4.4475,-4.4559,-4.4646,-4.4717,-4.4681,-4.4746,-4.4808,-4.4903,-4.4956,-4.5028,-4.5138,-4.5225,-4.5255,-4.5339,-4.5399,-4.5386,-4.5421,-4.5417,-4.5424,-4.5219,-4.5187,-4.543,-4.543,-4.543,-4.543,-4.543,-4.543,-4.4583,-4.4716,-4.4724,-4.4878,-4.491,-4.5017,-4.5057,-4.5109,-4.5151,-4.5277,-4.535,-4.5368,-4.5412,-4.5499,-4.5576,-4.5582,-4.5615,-4.5657,-4.5657,-4.5465,-4.5439,-4.5414,-4.5384,-4.5664,-4.5664,-4.5856,-4.5858,-4.5859]}]]